CAPE
119 51 85 173 417 575 565 500 522 977 1123 1067 667 667 591 537 578 683 1488 1875 1310 1773 2255 2025 2217 2365 2547 2654 3025 2753 3322 1761 2258 1408 1020 2082 1529 853 208 6 17 75 24
102 31 103 255 421 808 1065 1046 926 1220 1374 696 712 599 577 543 656 1005 1630 1507 1541 1695 1908 2745 3137 3360 2719 3939 3110 3566 2530 1614 1974 1202 802 238 1498 1216 634 187 21 120 17
59 45 116 296 444 655 1307 1615 1519 1519 1655 1322 606 1013 1230 1024 891 863 1013 2475 1144 1578 1978 2654 3057 3704 3929 2313 3211 3224 3193 2117 2011 1735 499 68 105 0 872 582 159 10 40
0 86 181 335 381 589 1146 1701 2093 1881 2001 1953 1946 2156 506 393 219 394 1495 962 1162 1477 1728 2630 2749 3145 3308 4392 3191 3118 3331 3217 1669 219 165 895 344 18 0 303 765 254 29
1 14 150 354 275 410 801 1542 2224 2787 2582 2838 2737 1269 1326 187 137 357 1503 2649 1801 1272 1563 2229 2511 3016 2887 4150 3229 3243 3518 2562 1938 145 3 342 0 640 0 0 0 57 74
253 7 50 198 288 281 606 1079 2342 3208 2763 2459 2431 2087 999 1211 485 892 949 1070 1100 1596 2533 2296 2432 2912 3491 3589 3170 3416 3323 2734 2160 620 306 0 0 0 0 0 0 0 3
500 341 50 105 230 246 411 707 1791 2940 2810 2434 2266 2199 1553 1385 1231 1458 973 2285 895 1007 3324 2487 2490 2482 3124 3226 3595 3423 2992 2509 1652 916 33 0 0 0 0 0 0 0 1
635 618 385 141 138 197 322 574 1213 2567 2882 2573 2935 2784 2112 1185 706 1681 956 944 845 1049 2640 1900 2021 2322 2612 2892 3453 3325 2317 1852 690 103 45 0 0 0 0 0 0 0 0
738 764 723 510 302 207 323 528 1142 2156 2839 2699 2765 2825 2347 2222 1112 2072 2403 1250 1770 1120 1885 2030 1982 2128 2505 2733 3465 3632 1832 1056 489 26 0 0 0 0 0 0 0 0 0
687 801 911 872 696 418 275 528 836 1638 2563 2533 2407 2460 2367 2479 2246 1334 2053 1824 1477 1718 2331 2090 2068 2128 2665 3063 3392 3127 1392 687 400 0 0 0 0 0 0 0 0 0 0
333 537 828 1010 969 764 459 403 632 1217 2202 2444 2590 2575 2718 2480 2476 1568 1550 1992 2068 2059 2563 2505 2465 2490 2547 3195 3373 3150 1525 624 419 1 0 0 0 0 0 0 0 0 0
276 389 639 943 1106 1059 916 653 729 981 1926 3384 3862 3745 3318 3239 2719 2720 1720 1590 2659 2528 2052 2326 2554 2623 2310 2933 3548 3179 1515 663 556 1 0 0 0 0 0 1 0 0 1
939 498 278 791 1177 1200 1236 1226 1158 907 1480 3219 3265 3992 4117 4188 4299 4155 3791 3068 2595 1931 1582 2213 2454 2664 2352 2706 3675 3211 1761 661 280 0 0 0 0 0 0 0 0 0 0
2467 1827 1846 1071 1280 1443 1508 1412 1332 1443 1616 2563 2915 3795 3251 3960 3212 3985 3510 3056 2919 2055 1991 2307 2565 2702 2230 2952 3486 3102 1497 634 11 0 0 0 0 0 0 0 10 0 11
1804 2393 2775 3299 3082 1638 1666 1712 1662 1942 2346 3661 2785 3474 3396 3260 3121 3012 2901 2862 3049 2420 1929 1805 1956 2195 1975 2682 3885 2865 1387 211 2 0 0 0 0 0 0 0 0 4 9
903 1158 1243 2078 2328 2595 2457 2094 2075 1994 1981 2210 2361 3098 3715 3595 3876 3531 3273 3511 3049 2956 3168 2096 1471 1564 1541 1721 2789 2446 1212 214 0 0 0 0 0 0 0 0 0 0 0
704 738 768 718 1285 1853 2064 2415 2559 2488 2501 2384 2339 2689 3485 3237 3769 3606 3903 3851 3892 3886 3168 2523 1898 1864 2406 2020 1671 1181 1090 160 0 0 0 0 0 0 0 0 0 0 0
307 397 444 497 725 1245 1259 1111 1798 2532 2648 2688 2564 2486 2548 2726 3319 4135 4358 4606 4395 4319 3749 2993 2733 2756 2599 917 458 333 971 135 0 0 0 0 0 0 0 0 3 0 0
304 324 321 449 480 805 647 933 1745 2714 2341 2695 2796 2802 2748 3022 3158 3708 4237 4477 4430 4587 4066 3292 3466 3604 2296 0 0 102 803 13 0 0 0 0 0 0 0 0 2 13 1
237 315 351 482 648 568 634 1052 1840 2980 2402 2180 2550 2887 3070 3547 3242 4047 4452 4626 4168 4432 3517 3682 4115 3420 3119 0 0 220 857 0 0 0 0 0 0 0 0 0 0 11 8
218 405 563 591 396 522 953 1232 1100 1181 1407 2220 3019 2967 3549 3527 3700 4377 4549 4547 4539 4269 4376 4055 4191 4263 3803 38 0 0 1098 19 0 0 0 0 0 0 0 0 1 6 0
266 353 620 549 554 351 617 903 796 587 1048 1940 2184 2539 3251 3036 3190 3831 4455 4555 4629 4441 4247 4453 3450 3144 3869 204 0 0 0 0 0 0 0 0 0 0 0 0 0 0 0
216 137 379 607 436 456 312 481 304 369 536 2137 2275 2659 2792 3138 3347 3262 2695 3987 4193 4080 3665 2506 3263 3891 3853 425 0 0 0 0 0 0 0 0 0 0 0 0 0 0 0
254 120 193 477 281 316 239 77 57 227 810 985 1290 1416 1804 1907 2553 2353 1865 1641 1706 1664 1780 2340 1633 3961 3903 1371 15 0 0 0 0 0 0 0 0 0 0 0 0 0 0
265 189 131 183 248 272 146 133 193 284 839 916 873 883 864 772 1123 982 525 598 459 208 416 230 188 243 1672 2409 277 0 0 0 0 0 0 0 0 0 0 0 0 0 0
171 147 99 46 68 68 93 8 2 77 412 797 768 308 729 768 734 628 286 0 1 0 0 0 1 2 0 8 0 0 0 0 0 0 0 0 0 0 0 0 0 0 0
CIN
-33 -104 -69 -10 -3 -11 -33 -23 -20 -1 -0 -0 -0 -0 -0 -1 -0 -1 -3 -2 -0 -0 -0 -0 -0 -0 -0 -1 -0 -0 -6 -0 -1 -0 -2 -0 -0 -0 -96 -249 -195 -138 -177
-36 -110 -81 -8 -4 -0 -2 -16 -8 -4 -4 -6 -2 -2 -5 -4 -4 -0 -1 -0 -0 -0 -0 -0 -0 -3 -0 -6 -0 -0 -0 -0 -0 -2 -21 -78 -3 -0 -12 -108 -231 -120 -199
-50 -78 -53 -11 -5 -1 -0 -0 -5 -3 -5 -2 -23 -3 -1 -16 -6 -6 -7 -2 -4 -0 -0 -0 -0 -0 -0 -0 -0 -0 -0 -0 -0 -2 -94 -209 -136 -0 -10 -34 -128 -237 -124
-1 -51 -30 -15 -8 -4 -0 -0 -1 -5 -2 -3 -0 -0 -50 -63 -100 -70 -4 -19 -10 -3 -0 -0 -0 -0 -2 -0 -0 -0 -0 -1 -0 -159 -199 -27 -133 -241 -0 -140 -22 -72 -165
-2 -28 -45 -12 -10 -2 -0 -0 -0 -0 -0 -1 -2 -26 -24 -146 -168 -104 -13 -1 -7 -26 -4 -0 -0 -0 -0 -0 -0 -0 -0 -0 -0 -226 -391 -158 -0 -57 -0 -0 -0 -79 -117
-15 -9 -94 -30 -19 -21 -0 -0 -1 -1 -5 -7 -15 -13 -45 -38 -106 -71 -60 -44 -34 -16 -3 -1 -0 -0 -0 -0 -0 -0 -0 -0 -0 -142 -257 -0 -0 -0 -0 -0 -0 -0 -0
-0 -21 -80 -87 -39 -21 -7 -2 -2 -16 -14 -15 -20 -30 -49 -54 -61 -55 -88 -25 -51 -27 -8 -8 -0 -0 -0 -0 -0 -0 -0 -0 -7 -92 -306 -0 -0 -0 -0 -0 -0 -0 -0
-0 -0 -24 -65 -72 -50 -19 -8 -6 -22 -22 -32 -21 -15 -33 -67 -121 -35 -78 -70 -66 -38 -7 -2 -0 -0 -0 -0 -0 -0 -3 -22 -168 -400 -389 -0 -0 -0 -0 -0 -0 -0 -0
-1 -0 -0 -20 -47 -59 -49 -35 -11 -21 -27 -36 -35 -27 -36 -32 -57 -0 -2 -67 -25 -49 -16 -1 -0 -0 -0 -0 -0 -0 -21 -105 -229 -409 -0 -0 -0 -0 -0 -0 -0 -0 -0
-1 -0 -0 -0 -32 -39 -47 -44 -26 -24 -29 -30 -41 -45 -50 -41 -38 -71 -18 -27 -44 -32 -8 -1 -0 -0 -0 -0 -0 -0 -83 -216 -238 -0 -0 -0 -0 -0 -0 -0 -0 -0 -0
-1 -0 -0 -1 -10 -12 -32 -42 -43 -22 -26 -30 -22 -32 -39 -41 -43 -75 -78 -40 -21 -19 -0 -0 -0 -0 -0 -0 -0 -0 -64 -215 -274 -35 -0 -0 -0 -0 -0 -0 -0 -0 -0
-2 -0 -0 -0 -0 -0 -0 -26 -38 -27 -25 -20 -3 -12 -24 -19 -29 -43 -66 -66 -9 -3 -18 -4 -0 -0 -2 -0 -0 -0 -44 -223 -200 -36 -0 -0 -0 -0 -0 -6 -0 -0 -0
-37 -20 -0 -0 -0 -0 -1 -0 -19 -35 -20 -22 -29 -14 -14 -8 -6 -11 -11 -20 -26 -38 -48 -3 -4 -2 -3 -0 -0 -0 -30 -212 -317 -32 -0 -0 -0 -0 -0 -0 -0 -0 -0
-49 -44 -20 -3 -1 -1 -1 -0 -0 -14 -16 -19 -25 -11 -30 -18 -45 -20 -25 -31 -28 -48 -38 -5 -1 -7 -5 -0 -0 -0 -63 -216 -541 -0 -0 -0 -0 -0 -0 -0 -0 -0 -3
-132 -68 -53 -49 -26 -8 -0 -2 -4 -1 -0 -0 -26 -27 -34 -29 -29 -31 -30 -22 -19 -42 -54 -34 -28 -18 -19 -0 -1 -0 -60 -371 -189 -0 -0 -0 -0 -0 -0 -0 -0 -0 -0
-210 -184 -222 -76 -33 -15 -9 -14 -32 -39 -25 -19 -41 -27 -12 -18 -7 -8 -6 -1 -2 -10 -5 -37 -55 -35 -33 -41 -51 -22 -79 -348 -0 -0 -0 -0 -0 -0 -0 -0 -0 -0 -0
-197 -200 -217 -279 -161 -36 -34 -31 -20 -16 -20 -39 -36 -35 -18 -22 -5 -7 -0 -0 -0 -0 -2 -17 -33 -29 -8 -103 -93 -88 -77 -361 -0 -0 -0 -0 -0 -0 -0 -0 -0 -0 -0
-331 -310 -300 -309 -256 -126 -165 -215 -127 -45 -24 -27 -43 -55 -52 -28 -13 -0 -0 -0 -0 -0 -0 -2 -5 -1 -6 -249 -291 -271 -71 -384 -0 -0 -0 -0 -0 -0 -0 -0 -0 -0 -0
-363 -369 -381 -324 -321 -213 -292 -260 -131 -38 -55 -25 -23 -29 -36 -19 -14 -4 -0 -0 -0 -0 -0 -0 -0 -0 -32 -0 -0 -314 -88 -304 -0 -0 -0 -0 -0 -0 -0 -0 -0 -0 -0
-392 -372 -368 -280 -255 -301 -305 -209 -93 -12 -40 -43 -20 -12 -6 -4 -12 -0 -0 -0 -0 -0 -0 -0 -0 -0 -29 -0 -0 -230 -58 -0 -0 -0 -0 -0 -0 -0 -0 -0 -0 -0 -0
-331 -257 -219 -243 -342 -308 -176 -145 -179 -192 -166 -55 -8 -2 -1 -6 -7 -0 -0 -0 -0 -0 -0 -0 -0 -0 -0 -93 -0 -0 -7 -284 -0 -0 -0 -0 -0 -0 -0 -0 -0 -1 -0
-243 -236 -166 -217 -243 -343 -235 -162 -214 -281 -203 -82 -45 -13 -3 -17 -6 -0 -1 -0 -0 -0 -0 -0 -0 -0 -0 -220 -0 -0 -0 -0 -0 -0 -0 -0 -0 -0 -0 -0 -0 -0 -0
-238 -301 -223 -178 -256 -270 -335 -269 -364 -329 -299 -37 -21 -2 -3 -0 -0 -8 -31 -3 -1 -0 -0 -0 -0 -0 -0 -250 -0 -0 -0 -0 -0 -0 -0 -0 -0 -0 -0 -0 -0 -0 -0
-175 -280 -250 -173 -277 -285 -330 -482 -533 -368 -147 -113 -65 -53 -13 -41 -0 -2 -82 -100 -93 -91 -97 -34 -101 -2 -0 -74 -17 -0 -0 -0 -0 -0 -0 -0 -0 -0 -0 -0 -0 -0 -0
-107 -171 -209 -210 -219 -235 -323 -385 -332 -262 -88 -84 -101 -90 -76 -85 -44 -98 -280 -198 -239 -178 -300 -313 -294 -298 -73 -17 -308 -0 -0 -0 -0 -0 -0 -0 -0 -0 -0 -0 -0 -0 -0
-103 -118 -180 -226 -216 -252 -251 -371 -0 -228 -165 -70 -68 -200 -82 -57 -64 -95 -240 -0 -0 -0 -0 -0 -0 -0 -10 -96 -0 -0 -0 -0 -0 -0 -0 -0 -0 -0 -0 -0 -0 -0 -0
Wind_Speed
15 17 15 14 15 14 13 11 10 9 7 6 6 5 6 5 4 2 4 4 5 6 3 8 7 6 8 4 6 8 6 7 8 9 3 6 5 5 4 5 5 6 5
18 17 17 15 15 14 14 13 11 10 8 7 6 4 3 2 3 5 4 2 2 5 6 6 8 9 7 8 5 7 7 7 4 7 8 5 5 4 3 4 3 5 1
19 18 18 16 15 15 14 14 13 12 10 9 5 4 4 4 4 6 8 4 0 4 2 5 6 7 8 9 6 6 7 8 6 3 4 6 7 9 6 5 2 2 4
17 20 20 18 17 15 15 13 14 13 12 10 7 6 5 5 1 3 5 2 2 4 3 3 6 6 8 7 7 7 8 6 9 7 6 3 1 4 6 2 6 4 5
18 20 21 20 18 16 15 14 14 13 11 11 10 7 8 5 6 5 3 4 3 5 2 3 5 6 7 7 6 7 7 6 7 6 6 5 5 5 5 7 3 6 5
19 18 19 19 18 17 16 15 15 12 13 12 12 10 6 7 5 5 4 7 3 6 4 4 5 3 6 8 6 6 6 6 5 7 4 6 6 7 7 8 7 6 2
19 18 18 19 19 19 18 15 16 15 15 14 13 12 11 8 8 6 7 7 4 4 8 2 3 5 6 5 5 5 4 6 7 7 8 5 5 5 6 7 8 9 5
19 19 20 19 20 20 19 17 17 15 15 15 13 10 11 8 9 8 8 5 6 3 4 2 2 2 3 5 4 2 4 6 5 5 6 7 5 5 5 6 7 9 10
18 19 20 20 19 20 20 19 16 15 16 16 12 11 11 11 9 8 8 7 4 5 5 4 2 4 1 3 4 2 2 3 2 2 4 7 4 5 6 6 6 6 8
18 20 19 20 20 20 19 19 18 17 17 16 14 13 13 12 11 7 8 7 6 5 4 4 4 3 2 5 2 3 4 2 2 4 4 7 7 5 5 6 6 6 7
13 16 20 20 20 20 19 20 19 19 16 16 15 14 13 13 12 11 9 10 8 6 7 7 6 6 7 3 1 2 4 2 3 2 4 4 5 6 7 6 8 7 7
12 12 17 21 19 20 19 19 18 17 17 15 13 14 12 12 12 12 12 10 9 9 8 8 8 7 7 5 3 4 4 4 3 3 3 5 5 5 6 6 4 6 6
4 13 11 14 16 17 17 17 17 17 17 15 15 14 14 13 12 12 11 10 10 10 10 9 9 9 8 8 4 4 5 4 3 3 3 4 4 6 6 6 7 7 4
12 11 12 3 8 10 12 13 15 17 16 16 15 13 14 14 14 12 12 12 11 11 11 9 9 9 8 9 4 5 5 4 4 4 4 4 5 4 5 6 7 7 9
11 13 12 12 12 3 5 8 10 12 13 12 14 14 14 14 14 14 13 13 12 12 11 10 10 10 9 9 9 7 6 6 6 5 5 8 10 11 12 8 8 9 8
9 10 13 7 4 6 6 5 7 10 10 11 13 12 12 13 12 12 13 12 12 12 11 11 11 10 9 9 15 10 8 7 7 4 8 8 11 10 13 13 15 11 10
6 4 4 7 7 5 4 7 7 9 9 11 11 11 11 11 11 12 12 12 11 10 11 10 10 10 10 13 13 10 8 8 8 5 8 9 8 8 8 7 9 8 6
9 7 6 5 6 9 5 7 9 9 10 10 10 10 12 12 11 11 11 10 9 10 10 10 9 9 8 16 14 11 10 8 10 8 8 5 9 7 6 4 6 9 9
9 8 8 6 4 8 6 7 6 10 10 10 10 9 11 11 11 11 11 10 10 9 9 10 10 10 6 12 17 13 10 10 10 9 6 8 8 8 0 3 4 5 8
9 8 8 7 5 5 6 6 6 8 8 9 9 10 9 8 10 10 11 10 9 9 9 10 10 12 11 13 17 14 9 11 9 9 4 4 7 10 5 3 3 1 6
9 7 4 6 6 6 5 5 5 6 7 6 5 6 7 7 6 6 8 9 9 9 10 9 9 9 11 13 15 16 10 10 9 9 7 8 13 10 6 3 4 5 3
8 12 7 7 8 6 7 4 7 6 7 5 7 6 5 7 6 8 5 8 8 9 8 8 8 8 9 14 16 15 7 11 10 10 7 8 14 11 7 5 6 3 6
8 11 11 9 9 9 8 8 8 8 8 6 2 4 3 3 4 6 5 3 5 7 7 8 7 6 8 9 12 11 4 10 9 8 5 19 15 10 6 3 3 4 7
9 9 10 10 9 9 10 9 8 7 4 7 3 3 3 3 5 5 5 4 3 2 3 2 6 5 8 8 9 8 6 10 8 8 10 10 11 9 5 9 6 7 5
6 8 9 8 10 8 9 11 10 8 6 2 3 6 5 4 4 5 6 4 3 2 4 3 1 4 4 5 13 16 11 9 9 10 8 8 8 9 8 8 7 7 4
8 7 9 10 9 8 10 9 10 12 8 8 2 4 4 5 4 5 3 2 7 4 3 8 8 4 10 11 19 17 12 12 18 10 8 9 8 11 10 9 8 7 6
Wind_Direction
177 171 178 167 161 159 164 176 180 164 190 199 206 206 214 195 245 248 111 281 17 21 297 349 355 349 354 329 9 343 351 316 49 311 351 133 169 79 52 46 38 43 69
172 176 182 176 178 173 172 175 183 176 195 204 236 262 274 263 296 355 50 281 336 324 296 355 329 16 323 72 5 21 339 346 31 3 322 338 147 165 40 47 13 112 223
176 180 182 187 186 180 184 179 187 182 196 240 195 183 261 257 255 216 227 157 348 287 12 344 355 343 291 27 12 23 359 344 329 79 18 341 360 333 144 161 109 297 324
185 178 185 190 193 189 183 188 188 191 190 202 231 214 257 250 239 221 68 328 211 308 295 18 1 359 325 39 10 24 340 335 352 356 37 127 73 347 327 169 158 201 209
185 184 188 189 198 189 187 186 190 194 206 189 232 195 230 218 225 224 114 227 231 233 32 26 7 11 357 46 22 5 2 3 349 5 344 344 298 181 312 312 317 201 170
182 190 185 186 198 194 191 185 181 195 201 195 201 230 239 243 266 191 230 239 207 172 132 16 5 33 6 34 21 7 38 17 25 344 329 352 347 353 330 328 312 341 296
184 183 186 188 193 199 193 192 180 192 199 203 204 207 217 225 245 241 211 272 216 215 105 47 38 5 2 49 9 21 41 48 19 7 333 1 3 350 343 330 338 321 294
184 185 188 189 193 201 197 199 182 192 197 201 203 203 211 218 222 208 259 221 237 210 96 326 326 13 330 17 16 32 42 48 43 26 355 324 8 357 349 345 337 330 335
194 189 189 187 194 200 200 199 195 192 199 202 196 199 205 229 230 239 201 238 269 277 178 240 306 312 338 359 9 79 79 69 14 114 351 318 20 6 350 344 351 343 332
194 191 192 192 193 196 198 198 194 193 198 203 198 199 203 210 224 237 239 239 248 213 295 277 276 291 313 327 345 160 109 99 28 24 14 342 14 337 6 358 357 351 339
204 206 191 194 197 194 196 196 196 193 195 205 199 202 203 205 212 219 225 231 238 237 227 251 263 273 287 182 290 45 129 151 102 61 53 36 21 12 5 3 357 8 5
301 219 202 189 195 198 195 192 195 196 194 199 201 199 200 206 207 217 220 222 230 226 228 234 243 260 278 294 218 235 135 181 142 95 66 32 30 336 36 356 9 43 15
302 279 233 198 182 201 195 195 193 198 194 197 201 199 199 200 208 209 215 217 220 229 234 218 232 247 262 269 204 231 165 187 111 114 81 66 46 40 26 30 10 8 359
353 3 19 68 163 192 198 193 195 202 198 193 202 206 207 208 211 212 211 214 218 222 226 231 228 237 254 250 190 193 160 170 138 88 92 89 76 56 18 40 7 20 329
16 5 37 16 12 275 225 191 220 212 202 189 202 207 213 214 216 217 220 218 214 218 226 225 226 233 243 238 159 169 169 165 131 121 135 72 76 64 43 44 36 6 11
23 5 2 12 6 344 323 220 230 246 244 205 212 216 213 219 218 220 222 221 222 220 220 220 229 228 239 150 149 162 162 164 151 146 106 125 120 86 73 80 70 49 26
350 18 332 347 337 333 320 286 272 226 230 229 221 219 221 222 224 222 220 220 218 225 219 221 218 225 240 139 138 155 156 164 159 158 156 195 124 143 119 127 132 96 51
335 337 328 336 317 304 14 311 290 270 238 217 223 220 226 225 222 222 224 218 215 219 220 215 217 222 228 150 154 163 143 158 171 171 181 173 163 158 166 145 93 81 68
325 329 327 316 303 301 331 315 287 269 229 227 213 214 217 217 221 221 220 221 215 217 216 214 205 212 167 150 158 166 160 164 178 186 198 160 193 136 317 170 113 111 132
339 333 328 303 324 330 327 312 325 308 202 214 215 211 210 209 216 216 217 218 217 221 223 213 205 203 161 171 174 177 179 166 181 181 183 168 192 153 189 227 150 166 77
327 328 342 3 350 337 319 43 21 6 344 327 312 204 193 197 218 234 214 216 217 236 216 226 213 206 172 178 190 194 195 171 184 177 185 182 141 156 195 267 354 45 129
356 350 10 21 26 5 329 337 44 359 335 317 254 230 194 216 192 215 228 222 220 219 229 210 221 210 159 167 195 209 229 159 176 179 191 148 150 158 181 238 106 148 272
6 358 350 25 23 18 13 356 353 343 340 337 153 174 95 173 98 71 48 292 230 253 220 223 216 208 174 164 194 184 188 141 160 184 143 135 144 149 167 204 219 215 229
8 2 2 2 19 5 12 9 347 331 315 334 73 73 55 327 185 162 112 98 31 35 33 7 341 200 165 164 165 186 196 135 158 126 120 145 150 176 217 154 208 241 256
1 13 3 7 2 5 15 5 358 341 303 294 287 244 251 277 347 344 24 13 40 10 110 85 328 320 302 233 171 166 186 173 169 146 131 151 167 187 198 207 195 224 166
344 6 11 359 0 360 359 6 357 344 335 307 321 23 227 255 220 243 190 346 76 255 282 185 245 202 217 258 161 160 156 166 152 153 163 171 188 192 195 196 196 197 197